Flag for Germany Weather past 2 weeks in Ansbach, Bavaria, Germany

Now
57 °F

Overcast.


Feels Like: 57 °F
Forecast: 51 / 70 °F
Wind: 3 mph from Northwest

Location: Ansbach / Katterbach

Current Time: Sep 2, 2014 at 11:46:09 AM

Latest Report: Sep 2, 2014 at 10:58 AM


Visibility: N/A

Pressure: 30.19 "Hg

Humidity: 88%

Dew point: 54 °F

Location of AnsbachLocation

Historic Weather in Ansbach — Graph

°F

Ansbach temperature yesterday

Maximum temperature yesterday: 62 °F (at 3:58 PM)
Minimum temperature yesterday: 50 °F (at 7:58 AM)
Average temperature yesterday: 54 °F

Past Weeks' High & Low Weather Summary

 TemperatureHumidityPressure
High72 °F (Aug 29, 5:58 PM)100% (Aug 19, 6:58 AM)30.20 "Hg (Aug 19, 6:58 AM)
Low45 °F (Aug 25, 4:58 AM)40% (Aug 21, 4:58 PM)29.69 "Hg (Aug 26, 7:00 AM)
Average57 °F78%30.02 "Hg
* Reported Aug 18 9:58 AM — Sep 2 9:58 AM, Ansbach, Weather by CustomWeather, © 2014

Note: Actual official high and low records may vary slightly from our data, if they occured in-between our weather recording intervals... More about our weather records

Advertising

Ansbach weather history for previous 24 hours

 ConditionsComfort  
Time TempWeatherWind HumidityBarometerVisibility
9:58 AM
Sep 2
57 °FPartly sunny.6 mph85%30.17 "HgN/A
8:58 AM54 °FOvercast.3 mph93%30.17 "HgN/A
7:58 AM53 °FMore clouds than sun.3 mph95%30.17 "HgN/A
6:58 AM51 °FFog.3 mph98%30.16 "Hg6 mi
5:58 AM52 °FMostly cloudy.3 mph100%30.16 "HgN/A
4:58 AM52 °FOvercast.3 mph94%30.17 "HgN/A
3:58 AM52 °FOvercast.3 mph94%30.16 "HgN/A
2:58 AM52 °FOvercast.3 mph94%30.17 "HgN/A
1:58 AM52 °FOvercast.3 mph94%30.18 "HgN/A
12:58 AM52 °FPassing clouds.5 mph95%30.19 "HgN/A
11:58 PM
Sep 1
52 °FPassing clouds.7 mph94%30.19 "HgN/A
10:58 PM54 °FOvercast.6 mph88%30.20 "HgN/A
9:58 PM55 °FOvercast.5 mph87%30.20 "HgN/A
8:58 PM55 °FOvercast.6 mph82%30.20 "HgN/A
7:58 PM57 °FOvercast.5 mph77%30.19 "HgN/A
6:58 PM57 °FOvercast.5 mph77%30.17 "HgN/A
5:58 PM58 °FOvercast.6 mph74%30.17 "HgN/A
4:58 PM59 °FOvercast.7 mph68%30.17 "HgN/A
3:58 PM62 °FBroken clouds.13 mph59%30.16 "HgN/A
2:58 PM59 °FScattered clouds.6 mph65%30.17 "HgN/A
1:58 PM59 °FScattered clouds.7 mph63%30.17 "HgN/A
12:58 PM56 °FMore clouds than sun.6 mph75%30.16 "HgN/A
11:58 AM54 °FMore clouds than sun.8 mph88%30.16 "HgN/A
Weather by CustomWeather, © 2014

See weather overviewHow to use our weather pages